DW8209 Gubbio IT current weather conditions

sailwx.info

Wind from 281

Air temperature 5.0° C
Dewpoint 4.1° C

Last reported at 2016-Dec-10 23:40 UTC.
Time now 2016-Dec-11 00:22 UTC

Location: N 43°19' E 012°34'.
View on Google Maps.

See reports from other nearby stations

  
Tides and Currents Weather Stations Pressure Air Temp Water Temp Dewpoint Dewpoint Depression Visibility Wind Speed Wind Dir Waves Ship Positions
date/time (UTC)wind fromknots sea level pressurealtimeterstation pressurevisibilityair tempwater tempwave heightnotes
2016-Dec-10 23:40 281 5.0
2016-Dec-10 23:25 281 5.0
2016-Dec-10 23:10 281 5.0
2016-Dec-10 22:55 281 4.4
2016-Dec-10 22:40 282 4.4
2016-Dec-10 22:25 282 4.4
2016-Dec-10 22:10 283 4.4
2016-Dec-10 21:55 282 4.4
2016-Dec-10 21:40 281 3.9
2016-Dec-10 21:25 281 4.4
2016-Dec-10 21:10 281 5.0
2016-Dec-10 20:55 282 5.0
2016-Dec-10 20:40 283 5.0
2016-Dec-10 20:25 283 5.6
2016-Dec-10 20:10 282 5.6
2016-Dec-10 19:55 281 6.1
2016-Dec-10 19:40 282 6.1
2016-Dec-10 19:25 281 6.7
2016-Dec-10 19:10 283 6.7
2016-Dec-10 18:55 283 7.2
2016-Dec-10 18:40 283 7.2
2016-Dec-10 18:25 197 7.2
2016-Dec-10 18:10 197 7.8
2016-Dec-10 17:55 197 7.8
2016-Dec-10 17:40 091 7.8
2016-Dec-10 17:25 091 8.3
2016-Dec-10 17:10 084 8.3
2016-Dec-10 16:55 115 8.3
2016-Dec-10 16:40 101 8.3
2016-Dec-10 16:25 110 8.3
2016-Dec-10 16:10 073 8.3
2016-Dec-10 15:55 049 8.3
2016-Dec-10 15:40 194 8.9
2016-Dec-10 15:25 212 1 gusting 3 9.4
2016-Dec-10 15:10 195 1 gusting 3 10.0
2016-Dec-10 14:55 203 2 gusting 5 10.6
2016-Dec-10 14:40 181 1 gusting 3 11.1
2016-Dec-10 14:25 207 2 gusting 6 11.1
2016-Dec-10 14:10 226 1 gusting 4 11.7
2016-Dec-10 13:55 208 1 gusting 4 11.7
2016-Dec-10 13:40 256 11.7
2016-Dec-10 13:25 285 0 gusting 3 11.1
2016-Dec-10 13:10 359 0 gusting 2 11.7
2016-Dec-10 12:55 141 11.1
2016-Dec-10 12:40 273 11.1
2016-Dec-10 12:24 128 10.6
2016-Dec-10 12:09 090 10.0
2016-Dec-10 11:54 097 10.0
2016-Dec-10 11:39 084 1 gusting 3 8.9
2016-Dec-10 11:24 110 1 gusting 3 8.3
2016-Dec-10 11:09 097 1 gusting 3 7.2
2016-Dec-10 10:54 084 0 gusting 2 6.7
2016-Dec-10 10:39 120 6.7
2016-Dec-10 10:24 128 5.6
2016-Dec-10 10:09 248 5.0
2016-Dec-10 09:54 247 3.9
2016-Dec-10 09:39 249 2.8
2016-Dec-10 09:24 239 1.7
2016-Dec-10 09:09 243 1.1
2016-Dec-10 08:53 240 0.6
2016-Dec-10 08:38 271 -0.0
2016-Dec-10 08:23 022 -0.0
2016-Dec-10 08:08 217 -0.6
2016-Dec-10 07:53 217 -1.1
2016-Dec-10 07:38 217 -1.1
2016-Dec-10 07:23 217 -1.7
2016-Dec-10 07:08 221 0 gusting 0 -1.1
2016-Dec-10 06:53 041 1 gusting 2 -1.7
2016-Dec-10 06:38 263 -1.7
2016-Dec-10 06:23 263 -1.7
2016-Dec-10 06:08 262 0 gusting 1 -1.1
2016-Dec-10 05:53 219 -1.1
2016-Dec-10 05:38 219 -1.7
2016-Dec-10 05:23 219 -1.1
2016-Dec-10 04:53 063 -1.1
2016-Dec-10 04:38 063 -0.6
2016-Dec-10 04:23 020 -0.6
2016-Dec-10 04:08 319 -0.6
2016-Dec-10 03:53 321 -0.6
2016-Dec-10 03:38 304 -0.6
2016-Dec-10 03:23 219 -0.6
2016-Dec-10 03:08 219 -0.6
2016-Dec-10 02:53 219 -0.0
2016-Dec-10 02:38 219 -0.0
2016-Dec-10 02:23 219 -0.0
2016-Dec-10 02:08 219 0.6
2016-Dec-10 01:53 219 0.6
2016-Dec-10 01:38 219 0.6
2016-Dec-10 01:23 085 0.6
2016-Dec-10 01:07 083 0.6
2016-Dec-10 00:52 125 1.1
2016-Dec-10 00:37 231 1.1
2016-Dec-10 00:22 112 1.1
2016-Dec-10 00:08 253 1.1
2016-Dec-09 23:52 253 1.1
2016-Dec-09 23:37 253 1.7
2016-Dec-09 23:22 253 1.7
2016-Dec-09 23:07 253 1.7
2016-Dec-09 22:52 253 1.1
2016-Dec-09 22:37 253 1.1
2016-Dec-09 22:23 324 1.7
2016-Dec-09 22:07 034 0 gusting 0 1.1
2016-Dec-09 21:52 326 1.1
2016-Dec-09 21:37 334 0 gusting 1 1.1
2016-Dec-09 21:22 219 0.6
2016-Dec-09 21:07 026 1.1
2016-Dec-09 20:52 277 1.1
2016-Dec-09 20:37 277 1.1
2016-Dec-09 20:22 277 1.1
2016-Dec-09 20:07 277 1.1
2016-Dec-09 19:52 277 1.7
2016-Dec-09 19:37 277 1.7
2016-Dec-09 19:22 277 1.7
2016-Dec-09 19:07 312 1.7
2016-Dec-09 18:52 312 2.2
2016-Dec-09 18:37 290 1.7
2016-Dec-09 18:22 262 2.2
2016-Dec-09 18:07 277 2.8
2016-Dec-09 17:52 289 2.8
2016-Dec-09 17:37 289 2.8
2016-Dec-09 17:22 278 3.3
2016-Dec-09 17:07 128 3.9
2016-Dec-09 16:52 358 4.4
2016-Dec-09 16:37 284 5.0
2016-Dec-09 16:22 295 6.1
2016-Dec-09 16:07 126 7.2
2016-Dec-09 15:52 111 8.3
2016-Dec-09 15:37 084 8.9
2016-Dec-09 15:22 137 9.4
2016-Dec-09 15:07 010 10.6
2016-Dec-09 14:52 346 11.1
2016-Dec-09 14:37 279 11.7
2016-Dec-09 14:22 215 12.2
2016-Dec-09 14:07 212 12.2
2016-Dec-09 13:52 177 12.2
2016-Dec-09 13:37 235 11.7
2016-Dec-09 13:22 054 11.7
2016-Dec-09 13:07 097 11.1
2016-Dec-09 12:52 094 11.1
2016-Dec-09 12:37 078 10.6
2016-Dec-09 12:22 117 10.0
2016-Dec-09 12:07 127 9.4
2016-Dec-09 11:51 063 8.9
2016-Dec-09 11:36 132 8.3
2016-Dec-09 11:21 070 7.8
2016-Dec-09 11:06 052 7.2
2016-Dec-09 10:51 087 6.7
2016-Dec-09 10:36 079 5.6
2016-Dec-09 10:21 088 5.0
2016-Dec-09 10:06 125 4.4
2016-Dec-09 09:51 068 3.3
2016-Dec-09 09:36 096 0 gusting 1 2.8
2016-Dec-09 09:21 093 2.2
2016-Dec-09 09:06 148 2.2
2016-Dec-09 08:51 129 1.1
2016-Dec-09 08:36 252 0.6
2016-Dec-09 08:20 252 -0.0
2016-Dec-09 08:06 027 -0.6
2016-Dec-09 07:50 281 -1.7
2016-Dec-09 07:35 281 -2.8
2016-Dec-09 07:20 283 -2.8
2016-Dec-09 07:05 281 -2.8
2016-Dec-09 06:50 280 0 gusting 0 -3.3
2016-Dec-09 06:35 045 -3.9
2016-Dec-09 06:20 046 -3.9
2016-Dec-09 06:05 045 -3.9
2016-Dec-09 05:50 045 -3.9
2016-Dec-09 05:35 288 -3.9
2016-Dec-09 05:20 290 -3.9
2016-Dec-09 05:05 288 -3.9
2016-Dec-09 04:50 288 -3.9
2016-Dec-09 04:35 290 -3.3
2016-Dec-09 04:20 290 -3.3
2016-Dec-09 04:05 290 -2.8
2016-Dec-09 03:50 288 0 gusting 1 -3.3
2016-Dec-09 03:35 294 0 gusting 1 -3.3
2016-Dec-09 03:20 300 -3.3
2016-Dec-09 03:05 301 -2.8
2016-Dec-09 02:50 300 -3.3
2016-Dec-09 02:36 301 -3.3
2016-Dec-09 02:20 301 -2.8
2016-Dec-09 02:05 301 -2.8
2016-Dec-09 01:50 300 -2.8
2016-Dec-09 01:35 300 -2.8
2016-Dec-09 01:20 300 -2.8
2016-Dec-09 01:04 301 -2.2
2016-Dec-09 00:50 300 -2.2
2016-Dec-09 00:34 294 -2.2
2016-Dec-09 00:20 274 -2.2
2016-Dec-09 00:05 288 -1.7